Theta_e
304 304 305 306 307 308 310 311 312 312 312 312 314 317 319 319 318 320 323 324 326 327 327 326 325 325 325 326 326 328 330 330 330 329 329 329 326 324 324 324 324 323 323 323 323 323 323 323 323 322 322 322 322 323 323 324 324 325 325 325 324 323 322 322 322 322 318 314 314 315 317 319 318 317 318 320 319 319 320 320 319 319 319 319 319
302 302 303 304 305 306 307 309 311 312 312 313 312 311 314 315 316 318 319 319 322 325 325 325 326 325 325 326 328 330 330 330 330 330 330 329 327 325 324 324 324 324 323 323 323 323 323 323 323 323 323 323 323 323 324 324 325 325 325 325 324 323 322 322 322 321 320 314 313 314 314 316 316 315 318 320 320 320 320 319 319 319 319 319 318
300 301 302 303 304 304 305 307 309 311 312 313 314 313 313 313 315 318 318 317 320 322 321 323 326 327 328 329 330 330 330 330 331 331 331 330 328 325 324 323 324 324 324 324 324 324 324 323 323 323 323 323 323 323 324 325 325 325 325 325 324 324 323 322 321 321 320 318 313 313 313 313 314 316 318 320 320 319 319 318 319 319 319 318 318
298 299 300 302 303 303 304 305 306 308 310 312 313 314 315 314 314 316 316 317 319 320 320 321 324 326 328 328 329 329 329 330 331 331 331 330 328 325 324 324 324 325 324 324 324 324 324 323 323 323 323 323 323 323 324 325 325 325 325 325 324 324 323 322 321 321 321 319 315 312 311 311 313 315 318 320 319 318 318 318 318 318 318 317 318
297 298 299 300 301 302 303 304 304 305 307 309 311 313 314 316 315 315 315 315 317 318 319 321 322 324 325 326 327 328 329 330 331 331 331 331 328 325 324 324 324 325 325 324 324 324 324 324 323 323 323 322 323 323 324 324 325 325 325 324 324 323 321 320 320 320 320 319 317 314 312 311 311 312 315 316 318 318 318 317 317 316 316 317 318
295 296 297 298 300 301 302 303 304 304 305 306 307 309 311 314 316 316 316 316 315 316 318 319 321 322 323 324 325 326 328 330 331 331 331 329 326 324 324 324 324 324 324 324 325 325 324 324 323 322 322 321 322 323 323 325 325 325 324 323 322 320 318 316 316 317 317 317 316 315 314 313 312 311 311 312 315 317 317 317 317 316 316 317 317
294 295 296 296 298 298 299 301 302 303 304 305 305 307 308 311 314 316 317 317 316 316 317 318 320 321 322 323 324 325 327 329 330 330 329 326 324 323 323 323 322 322 323 324 325 325 324 324 323 321 321 321 322 323 324 325 325 324 322 321 319 316 315 313 313 314 315 316 316 315 315 315 314 313 312 311 312 313 313 314 315 316 317 318 317
293 293 294 295 296 297 297 298 300 302 303 304 304 306 307 308 310 314 316 318 317 317 317 318 319 320 321 322 323 324 326 327 328 328 326 324 322 322 321 320 321 321 322 324 325 325 324 323 322 321 321 321 322 323 325 325 324 322 320 317 314 313 312 312 312 312 313 315 315 315 315 316 316 316 315 313 311 312 313 314 314 316 317 317 316
292 292 293 293 293 295 295 297 298 300 302 303 304 304 305 307 308 310 313 316 317 318 318 318 318 319 320 320 321 322 324 325 325 325 324 322 321 320 320 320 321 322 323 324 324 324 322 321 321 320 320 321 322 323 324 324 322 320 316 313 311 311 310 310 310 311 311 312 313 314 315 316 316 316 315 313 312 315 317 315 315 316 316 314 314
290 291 292 292 292 293 294 295 296 298 300 302 303 304 304 305 306 308 310 312 315 317 318 318 318 318 319 320 320 321 322 322 323 322 322 321 321 320 320 321 323 324 324 324 323 322 321 320 320 320 320 322 323 324 324 322 320 316 312 311 310 309 309 309 308 308 309 309 311 312 313 314 315 315 315 314 314 315 315 315 316 316 314 313 314
289 289 290 291 291 291 292 293 294 296 297 299 301 303 304 304 305 306 307 309 312 314 316 318 318 319 319 319 320 320 321 321 321 321 321 320 321 321 322 323 323 323 323 323 322 321 320 320 320 320 321 322 323 323 322 319 315 312 310 310 309 308 308 307 307 307 308 309 310 310 311 313 313 312 312 314 314 315 314 314 315 315 314 316 316
288 288 289 289 290 290 291 292 293 294 296 297 299 301 303 303 304 305 306 307 309 311 314 316 317 318 318 319 319 320 320 320 320 320 320 321 322 322 323 323 323 323 322 322 321 320 320 320 321 321 321 322 323 322 319 316 312 310 309 308 307 307 307 307 307 308 308 308 308 308 309 310 311 311 313 313 313 313 314 314 314 315 315 316 314
287 288 288 289 289 289 290 290 291 293 294 295 297 299 301 303 303 304 305 305 307 309 311 313 315 316 317 318 319 320 320 320 320 321 321 322 322 322 322 322 321 321 321 321 321 321 321 321 321 321 322 322 321 319 315 312 310 309 308 307 306 306 306 306 307 307 307 308 310 311 311 311 312 313 312 312 311 312 313 313 314 314 314 313 312
287 287 288 288 288 289 289 289 290 291 292 294 295 297 299 302 303 303 304 305 305 307 309 310 312 314 315 317 318 319 320 321 321 321 321 321 321 320 320 320 319 320 320 320 320 321 321 321 321 321 321 319 317 314 311 310 309 307 307 306 306 306 307 306 306 307 308 310 312 314 313 311 310 309 309 311 313 314 313 312 312 312 311 312 312
287 287 287 287 288 288 288 289 289 290 291 292 293 295 297 299 302 303 303 304 304 305 306 308 310 312 314 315 316 318 319 320 320 320 319 318 318 318 318 319 319 319 320 320 321 321 321 321 321 320 317 314 312 311 309 308 307 306 306 306 306 306 306 306 307 307 308 309 309 309 309 307 308 309 310 311 313 313 312 311 311 312 312 312 312
286 286 286 287 287 288 288 288 289 289 290 290 291 293 294 297 299 302 303 303 304 304 305 306 308 310 312 314 315 316 317 318 318 318 317 316 316 317 318 319 319 320 320 321 321 321 321 320 319 316 313 311 310 309 307 307 306 306 306 306 306 307 307 307 307 306 307 307 307 307 307 307 309 311 311 310 310 310 310 311 311 312 311 311 310
285 285 286 286 286 287 287 288 288 288 289 289 290 291 292 294 296 299 302 303 303 304 304 305 306 308 310 312 314 315 316 316 316 316 316 315 316 317 318 319 320 321 321 321 321 321 320 318 315 312 310 309 308 306 306 306 306 306 307 307 307 307 307 307 307 307 307 307 307 307 308 308 308 309 310 309 308 308 308 309 309 309 309 309 308
285 285 285 285 285 286 286 287 287 288 288 288 289 290 291 292 294 296 299 302 303 303 303 304 305 307 308 311 313 315 317 317 318 318 318 317 318 319 320 321 322 322 322 322 321 319 316 313 311 309 308 307 306 306 306 306 307 307 307 307 307 307 307 307 307 307 308 308 308 308 308 309 309 309 309 308 308 307 307 307 307 307 307 306 306
286 286 286 286 286 286 286 286 287 287 287 288 288 289 290 291 292 294 297 300 302 303 303 303 304 306 307 309 311 314 316 318 319 320 320 321 321 322 323 323 323 322 321 319 317 314 312 310 309 307 306 305 306 306 306 307 307 307 307 307 307 307 307 307 308 308 309 309 309 309 309 309 309 309 309 308 308 307 307 306 306 306 305 305 304
286 286 286 286 286 286 286 286 286 286 287 287 288 288 289 290 291 292 294 297 300 302 303 303 304 305 306 307 309 312 314 316 318 319 320 321 322 322 323 323 322 319 316 314 311 310 309 308 307 306 305 306 306 307 307 307 307 307 307 307 307 307 307 308 309 309 309 309 310 310 309 309 309 309 308 308 307 307 306 305 305 304 304 303 302
286 286 286 286 286 286 286 286 286 286 286 287 288 288 288 289 290 291 292 295 298 301 303 303 303 305 306 306 307 309 312 314 315 316 317 319 320 321 321 320 317 314 311 310 309 309 309 307 306 305 305 306 306 307 307 307 307 307 307 307 308 308 309 309 309 310 310 310 309 309 309 309 308 308 307 307 306 306 305 304 303 303 303 302 302
285 286 286 286 286 286 286 286 286 286 286 287 288 288 288 288 289 290 291 293 296 299 301 302 303 304 305 306 306 307 309 311 313 314 315 315 316 317 317 316 314 312 310 309 309 308 307 306 305 306 306 306 306 307 307 307 307 307 307 308 309 309 309 309 309 309 309 309 309 309 309 308 308 307 307 306 305 304 303 303 302 302 302 302 302
286 285 285 285 286 286 286 286 286 286 287 287 287 288 288 288 288 289 290 291 294 297 300 302 302 303 304 306 306 306 307 309 311 312 313 313 313 313 313 313 311 310 309 308 308 307 306 305 306 306 306 306 307 307 307 307 307 308 308 309 309 309 309 309 309 309 309 309 308 308 308 307 307 306 305 305 304 303 302 302 302 302 302 302 301
285 285 285 285 285 285 285 286 286 286 286 287 287 288 288 288 288 289 289 290 292 295 297 300 301 302 303 304 306 306 306 307 308 310 311 312 312 311 310 309 309 308 308 307 306 306 306 306 306 306 306 307 307 307 307 308 308 308 309 309 310 309 309 309 309 308 308 308 308 307 307 306 305 305 304 303 302 301 301 301 301 301 301 301 301
285 285 285 285 285 284 285 285 286 286 286 286 287 287 288 288 288 289 289 290 291 293 296 298 300 301 302 303 304 306 306 306 306 307 309 310 311 311 310 309 308 308 308 307 306 305 306 306 306 307 307 307 307 307 308 308 308 309 309 309 309 309 308 308 308 308 307 307 306 306 305 304 304 303 302 301 301 301 301 301 301 301 301 300 300
284 284 284 284 284 284 284 285 285 286 286 286 286 287 287 288 289 289 289 289 290 292 294 296 298 300 301 302 303 304 305 306 306 306 307 308 309 310 310 309 309 308 308 307 305 305 306 306 306 307 307 307 308 308 308 308 309 309 309 308 308 308 307 307 306 306 306 306 305 304 304 303 302 302 301 301 301 301 301 301 301 300 300 299 298
283 283 284 284 284 284 284 284 285 285 286 286 286 286 287 288 288 288 289 289 290 291 293 295 297 299 300 301 302 302 302 303 305 305 306 306 307 308 309 309 309 309 308 307 305 305 306 306 306 307 307 307 308 308 308 308 308 308 308 308 307 307 306 306 305 305 305 304 304 303 302 302 301 301 301 301 301 301 301 300 300 299 299 298 297
283 283 283 283 284 284 283 283 283 284 284 285 285 285 286 286 287 287 288 288 289 290 292 294 296 298 300 300 301 301 302 302 304 305 306 305 305 306 307 308 308 309 309 307 306 305 306 306 306 306 307 307 307 308 308 308 308 307 307 307 306 305 305 304 303 303 302 302 302 302 301 301 301 301 301 301 301 300 300 300 299 298 297 296 296
282 282 283 283 283 283 283 282 282 283 283 284 285 285 285 286 286 286 288 288 288 289 290 292 294 297 298 299 300 300 302 303 303 304 305 305 304 304 306 307 307 308 309 308 306 305 306 306 306 306 307 307 307 308 308 307 307 306 306 305 305 304 303 303 302 302 302 301 301 301 301 301 301 301 301 300 300 300 299 299 298 297 296 295 296
281 282 282 282 282 282 282 281 282 282 282 283 283 284 284 285 284 285 287 288 288 289 289 291 293 295 297 299 299 299 301 302 302 302 303 304 304 304 304 305 306 306 307 306 305 305 305 306 306 306 307 307 307 307 307 307 306 305 304 304 303 303 303 302 302 302 301 301 301 301 301 301 301 301 300 300 300 299 298 297 296 295 295 295 296
280 281 281 281 281 281 281 281 282 282 282 282 282 282 283 284 284 285 287 288 288 289 289 290 293 295 296 299 300 300 300 301 301 301 303 303 303 303 303 303 304 305 306 305 304 304 305 306 306 306 306 307 307 307 307 306 305 305 304 303 302 302 302 302 302 301 301 301 301 300 300 300 300 300 299 299 298 297 296 295 295 295 295 295 294
278 278 279 279 280 281 281 281 282 282 282 282 282 282 282 283 284 286 287 287 288 288 289 290 292 294 297 298 300 300 301 300 300 300 301 302 302 302 302 301 302 303 304 303 303 303 304 305 305 305 306 306 306 306 306 305 304 304 303 303 302 302 301 301 301 301 301 301 300 300 299 299 299 298 298 297 295 295 294 294 295 295 294 294 292
276 277 278 279 279 280 280 281 280 281 281 281 281 282 282 282 283 285 286 287 287 288 289 290 291 294 296 299 299 300 300 300 299 299 299 300 300 301 300 301 301 301 302 302 302 303 304 304 304 305 305 306 306 306 305 304 303 303 302 302 302 302 301 301 301 301 300 300 299 299 298 297 297 296 295 294 294 294 294 294 294 293 292 292 291
276 276 278 278 278 279 279 279 279 279 280 280 280 281 281 282 283 284 285 286 287 288 289 290 291 293 295 298 300 300 300 300 299 298 298 298 298 299 299 299 299 299 300 301 302 302 303 304 304 304 304 305 305 305 304 303 302 302 301 301 301 302 301 301 300 299 299 299 298 297 296 295 294 294 293 293 293 293 293 293 292 291 291 290 290
276 277 277 277 277 278 278 278 278 278 278 279 279 280 281 282 283 283 284 285 286 287 288 290 291 292 294 297 299 299 299 299 299 297 296 296 297 298 298 298 298 298 299 301 301 301 302 303 303 303 303 304 305 304 303 303 302 301 301 301 301 301 300 300 299 299 298 298 297 295 294 293 292 292 293 293 293 292 292 291 290 290 289 289 289
275 276 276 276 276 276 276 276 276 277 277 278 279 279 280 281 281 282 283 285 285 286 287 289 290 291 293 295 297 298 298 298 297 296 295 295 296 296 297 298 298 299 300 301 301 301 301 302 302 302 302 303 303 303 302 302 301 301 301 301 301 300 299 299 299 299 298 297 295 293 292 292 292 292 292 292 291 290 290 289 289 288 288 288 288
274 274 275 275 275 275 275 275 276 276 276 277 277 278 279 279 280 281 283 284 285 286 287 288 289 290 292 294 295 295 295 295 294 294 294 295 295 296 298 299 299 299 299 299 299 299 298 297 298 298 298 300 301 302 301 301 301 301 301 300 299 299 299 299 299 298 297 295 294 292 292 292 292 292 291 290 289 289 288 288 288 288 288 287 287
273 274 274 274 274 274 274 275 275 275 275 276 276 277 277 278 279 280 282 283 285 286 287 288 289 290 291 293 294 293 293 293 293 293 294 294 295 296 298 299 299 298 298 298 298 297 296 295 294 295 296 298 299 300 300 300 300 300 300 299 298 298 298 298 297 296 295 293 292 292 291 291 291 290 289 289 288 288 288 288 288 287 287 287 287
273 274 274 274 273 273 273 274 274 274 274 274 275 275 276 277 278 279 281 283 284 286 287 288 289 290 292 292 292 292 292 292 292 293 293 293 294 295 296 298 298 298 298 297 297 297 297 296 296 297 297 298 298 298 299 300 300 299 299 298 298 298 298 297 296 294 293 293 292 291 291 290 289 289 288 287 287 288 288 287 287 287 287 286 286
272 273 273 273 272 272 272 272 273 273 273 273 274 275 275 276 278 279 281 283 284 285 287 288 289 290 292 292 292 292 292 292 292 293 293 293 294 294 294 295 297 297 297 297 297 297 297 297 298 298 298 297 297 298 299 299 299 298 298 298 298 298 298 297 295 293 293 292 292 291 290 289 288 288 287 287 287 287 287 287 286 286 286 286 285
271 272 272 272 271 271 271 271 272 272 272 273 273 274 275 276 277 279 281 282 284 285 286 287 288 290 291 291 292 292 292 292 292 293 293 293 294 294 294 294 295 295 296 296 296 296 297 297 298 298 298 297 297 298 298 298 298 298 298 298 297 297 296 295 293 293 292 291 291 290 289 288 287 287 287 287 287 286 286 286 286 285 285 285 284
270 270 271 270 270 270 270 270 271 272 272 272 273 274 275 276 277 279 280 282 283 285 286 287 288 289 289 290 290 291 291 292 292 292 293 293 294 294 294 293 293 293 292 292 293 294 295 296 297 297 297 297 298 298 298 297 297 297 297 297 297 295 294 292 292 291 291 290 289 288 288 287 287 287 286 286 286 286 286 285 285 285 284 284 284
269 269 269 269 269 269 269 269 270 271 272 273 274 275 275 276 277 279 281 282 283 284 285 286 287 288 288 289 290 290 290 291 291 292 292 293 293 292 292 292 291 291 290 290 291 293 295 296 296 296 297 297 297 297 297 297 297 297 297 296 295 293 292 291 290 290 289 288 288 287 287 286 286 286 286 285 285 285 285 284 284 284 284 284 283
268 268 268 268 268 268 268 269 270 271 272 273 273 274 275 276 277 279 280 282 283 283 285 286 287 287 288 289 289 289 290 290 290 291 291 291 292 291 291 290 290 290 290 290 292 293 294 295 296 296 296 296 295 295 296 296 296 296 295 294 292 291 290 290 289 289 288 288 287 287 286 286 286 285 285 285 285 285 284 284 284 284 283 283 283
268 268 268 268 268 268 269 270 271 272 273 273 273 274 275 277 278 279 280 281 282 283 285 286 287 287 288 288 289 289 289 289 289 290 290 290 291 291 290 289 289 289 290 291 292 293 294 294 295 295 295 294 294 294 294 294 293 292 292 291 291 290 289 288 288 287 287 286 286 286 286 285 285 285 284 284 284 284 284 284 283 283 283 283 283
268 268 267 267 268 268 269 271 272 272 272 273 273 274 276 277 278 279 280 281 283 284 285 286 287 287 288 288 288 289 289 289 289 289 290 290 290 290 289 288 288 288 288 290 291 292 292 293 293 293 293 293 293 293 292 291 291 290 289 289 288 288 287 287 286 286 285 285 285 285 285 284 284 284 284 284 283 283 283 283 283 283 283 283 282
268 268 268 268 268 269 270 271 272 272 272 272 273 274 276 277 279 280 281 282 283 284 285 286 287 287 288 288 288 288 288 289 289 289 289 289 289 288 288 287 287 287 288 288 290 290 291 291 291 291 291 291 291 290 290 290 289 289 288 287 287 287 286 286 285 285 284 284 284 284 284 284 283 283 283 283 283 283 283 283 282 282 282 282 282
268 268 268 269 269 270 271 271 271 271 271 272 274 275 277 278 280 280 281 283 284 285 286 286 287 287 287 287 287 287 287 288 288 288 288 287 287 286 286 286 286 286 287 288 289 289 289 289 289 288 288 288 288 288 289 288 288 288 287 287 287 286 286 285 284 284 284 283 283 283 283 283 283 283 283 283 282 282 282 282 282 282 282 282 281
268 268 269 269 270 270 270 270 271 271 272 273 274 276 278 279 280 281 282 283 284 285 286 286 286 286 286 286 286 286 286 287 286 286 286 285 285 285 285 285 285 286 287 287 287 287 287 287 287 287 287 287 287 287 287 287 287 286 286 286 285 285 284 284 283 283 283 283 283 282 282 282 283 282 282 282 282 282 282 281 281 281 281 281 281
269 269 269 269 269 270 270 270 271 271 272 273 274 276 277 278 279 281 282 283 284 284 285 285 285 286 285 285 285 285 285 285 285 284 284 284 284 284 284 284 285 285 286 286 286 286 286 286 285 285 285 285 285 285 285 285 285 284 284 284 284 283 283 282 282 282 282 282 282 282 282 282 282 282 281 281 281 281 281 281 281 281 281 280 280
269 269 269 269 269 269 270 270 271 272 272 273 274 276 277 278 279 280 282 283 283 284 284 284 284 284 284 284 283 283 283 283 283 283 283 283 283 283 284 284 284 284 285 285 285 285 285 284 284 284 283 283 283 283 283 283 283 283 282 282 282 282 281 281 281 281 281 281 281 281 281 281 281 281 281 281 281 281 281 281 281 281 280 280 279
Wind_Speed
23 22 20 19 17 14 16 20 24 27 28 30 30 32 35 36 37 39 40 39 39 41 44 45 44 41 39 42 46 46 43 40 39 39 39 38 36 36 36 36 37 38 37 37 38 38 38 38 38 38 37 37 37 37 36 35 33 32 31 31 30 30 28 27 28 30 25 22 22 20 16 15 16 16 16 15 14 15 15 15 13 12 12 13 13
28 27 25 23 22 19 16 16 18 23 28 31 32 33 35 36 36 38 39 39 40 40 42 45 45 43 43 46 50 48 43 40 38 38 39 39 38 39 38 38 40 40 40 40 39 38 38 38 38 38 37 37 37 36 35 34 33 32 32 32 31 30 29 28 29 30 27 22 21 21 19 18 19 19 18 15 14 16 17 18 15 14 14 14 14
32 30 29 27 25 23 20 17 16 17 22 27 31 34 36 37 36 37 38 39 40 40 40 42 43 44 46 49 50 47 42 39 37 38 40 40 40 41 41 41 41 42 42 41 40 38 38 38 38 37 37 37 37 36 36 34 33 33 33 33 32 30 30 30 29 28 26 23 22 21 21 22 20 17 15 16 17 19 19 19 17 16 16 15 15
34 33 31 29 27 25 23 21 19 17 18 21 25 30 34 37 37 38 39 39 39 40 40 40 41 44 47 48 48 45 40 38 37 39 40 41 41 41 42 43 43 43 43 42 39 38 38 38 38 37 37 37 37 37 36 35 34 34 34 33 32 31 30 30 29 27 26 25 24 23 22 22 21 17 15 16 19 20 20 19 19 19 18 18 17
36 35 34 32 30 28 26 25 23 21 19 19 21 24 28 33 36 37 39 40 40 40 40 40 41 43 45 45 45 43 40 38 38 39 41 42 42 42 42 43 43 43 43 42 40 39 39 38 38 37 37 37 37 37 36 36 35 35 34 33 32 31 30 29 28 27 27 26 25 23 23 23 22 20 18 19 20 21 21 20 21 20 19 18 19
38 37 36 35 33 31 30 28 27 26 24 22 21 22 23 27 31 34 37 39 41 41 41 41 41 42 43 44 44 43 41 40 39 39 40 41 41 41 42 42 42 42 42 41 40 39 38 38 37 37 37 37 37 37 36 36 35 35 34 33 31 30 30 29 29 29 28 27 25 24 24 24 23 22 22 22 22 22 22 22 21 20 18 18 19
40 39 38 37 35 34 33 32 30 28 28 27 24 22 22 23 26 30 33 36 40 42 41 41 41 41 42 43 43 42 42 41 40 40 40 41 41 42 42 42 42 42 42 42 40 38 37 36 37 37 38 38 37 37 35 35 34 34 33 31 30 30 29 29 28 28 27 27 26 26 26 26 25 25 24 23 23 24 25 24 22 21 20 19 20
43 41 40 40 38 37 36 34 33 30 29 28 27 25 23 22 22 25 28 32 37 40 40 40 40 41 42 43 43 42 42 42 41 41 41 41 41 42 42 42 43 43 42 41 39 37 36 36 37 38 37 38 37 35 34 34 33 33 32 30 29 29 28 28 28 28 27 28 28 28 27 27 27 27 26 24 23 24 23 23 22 22 21 21 21
44 43 43 42 41 39 38 37 35 33 31 29 28 28 26 24 22 23 25 28 32 35 37 38 39 41 43 43 42 42 42 42 42 42 41 41 41 42 42 42 42 41 40 38 37 37 37 37 38 38 37 37 36 34 33 33 32 32 30 29 29 28 28 28 28 28 28 28 28 29 29 29 28 28 27 25 24 22 21 22 22 22 22 22 21
45 45 44 44 43 41 40 39 37 36 34 32 30 29 28 27 25 23 23 25 28 30 33 35 37 40 42 43 42 42 42 42 42 42 41 41 41 41 41 40 40 39 38 37 38 38 38 38 37 37 36 35 35 34 32 31 31 30 29 29 29 28 28 29 28 28 28 28 28 29 29 29 29 29 28 25 23 22 22 22 22 21 21 22 22
45 45 44 44 44 44 42 40 39 37 36 34 32 31 30 29 28 26 24 23 24 27 29 32 35 37 39 40 41 41 41 41 41 40 40 40 40 40 39 38 38 38 38 39 40 39 39 38 37 37 36 35 35 34 32 31 30 30 29 29 29 28 28 28 27 27 27 28 29 28 28 29 29 27 25 24 23 23 23 23 22 21 21 22 22
45 44 44 44 44 44 43 42 41 39 37 36 35 33 31 30 30 28 26 24 23 24 26 29 31 32 34 36 38 39 39 40 39 39 39 38 38 38 38 38 38 39 39 39 39 39 38 37 37 36 36 35 34 33 32 31 31 30 30 30 30 29 28 27 26 27 27 28 28 28 27 27 26 24 23 23 22 22 22 22 21 20 21 21 21
46 46 45 44 44 43 43 43 43 41 39 37 36 35 33 31 31 30 28 26 25 24 24 26 28 29 30 33 35 36 38 38 38 38 38 37 36 37 38 39 39 39 39 39 38 38 38 37 37 36 35 34 34 33 32 32 31 31 31 30 30 29 28 28 27 28 27 25 24 24 25 25 25 25 24 22 21 21 22 21 21 21 22 22 23
47 47 46 46 45 44 43 43 43 43 41 39 37 36 35 33 32 31 30 29 27 26 25 25 26 28 29 31 33 35 36 37 37 36 36 36 37 37 38 39 39 38 38 38 38 38 37 36 36 35 35 34 34 33 32 31 31 31 31 30 29 29 29 28 28 27 26 25 25 26 27 27 25 24 23 20 19 21 22 22 22 23 23 23 23
45 47 47 46 46 46 45 44 44 44 43 42 39 37 36 35 34 32 31 31 30 28 27 26 26 27 28 30 32 35 36 37 36 35 35 35 36 37 38 39 39 38 39 39 39 38 37 36 35 35 35 34 33 32 31 31 31 31 31 30 29 29 29 28 28 27 27 28 29 29 28 26 23 22 21 21 22 23 23 21 20 21 21 22 23
45 45 46 46 45 46 46 46 46 45 45 44 42 39 36 35 35 35 33 32 31 30 29 28 26 25 26 29 32 35 37 37 36 35 35 36 37 38 39 40 40 40 39 39 39 38 36 36 35 35 34 33 32 31 31 31 31 31 30 29 28 28 28 28 27 27 27 28 28 27 26 24 23 23 25 25 25 25 23 22 21 23 24 24 26
46 46 45 46 46 46 46 47 47 47 46 45 45 43 40 37 35 36 35 34 32 32 31 30 28 26 25 27 30 33 35 36 36 35 36 37 38 39 41 41 41 40 39 39 38 37 36 35 35 34 33 32 31 31 31 31 30 30 29 28 28 28 27 27 27 27 28 28 27 26 25 25 25 27 28 28 26 24 24 26 27 28 27 27 28
47 46 46 47 47 47 47 47 48 48 47 47 46 45 43 41 37 35 36 37 35 33 33 32 30 28 26 26 27 29 31 32 32 33 34 35 37 39 40 41 41 40 39 38 37 36 35 34 33 33 32 31 31 31 31 30 29 29 29 28 28 28 27 27 28 28 28 28 27 27 26 26 27 28 28 28 27 26 26 27 27 27 26 26 24
44 45 47 48 48 48 48 47 48 49 48 48 47 46 45 44 41 37 35 37 37 36 35 34 32 29 27 26 26 26 28 29 29 29 31 32 34 36 38 39 39 38 38 37 36 34 34 33 32 32 32 32 31 31 30 30 29 29 28 28 28 28 27 27 27 27 26 26 26 26 26 26 25 25 25 24 24 24 24 22 22 22 22 21 19
42 44 47 49 49 48 48 48 48 49 49 48 47 47 46 45 44 40 37 36 37 38 37 36 35 31 28 27 27 26 27 27 28 28 29 30 32 34 36 37 37 37 36 35 34 33 33 32 32 32 32 31 31 30 30 30 29 28 28 28 28 27 27 26 26 25 25 25 25 24 24 24 23 22 21 20 20 21 20 19 18 19 19 18 18
45 46 47 49 50 49 49 49 49 49 48 48 48 48 47 46 45 43 40 37 36 38 38 37 37 35 31 28 27 27 27 27 27 27 28 30 32 34 35 35 35 34 33 32 32 32 32 33 33 32 31 31 30 30 30 29 28 28 28 27 27 26 25 25 25 25 25 24 24 24 23 23 22 21 21 20 19 18 17 17 17 18 18 18 18
48 47 48 50 50 50 49 49 49 49 48 48 48 48 48 47 46 44 42 39 37 37 38 38 38 38 36 33 29 27 28 28 28 28 28 30 31 33 35 34 34 33 32 32 32 32 33 32 32 31 30 30 30 30 29 28 28 28 27 27 26 26 25 25 25 25 25 24 24 24 24 23 23 22 21 19 18 17 17 17 17 18 18 18 18
47 47 48 49 49 50 49 49 49 49 49 48 48 49 49 49 47 45 43 41 39 37 37 38 39 40 39 38 36 32 29 28 29 29 29 30 31 32 33 33 33 33 33 33 33 33 32 32 31 30 30 30 30 29 28 27 28 27 27 27 27 27 26 26 26 26 26 26 26 25 24 24 23 22 20 19 18 18 18 18 19 19 19 19 18
45 46 47 48 49 49 49 49 49 50 50 49 49 50 50 49 49 47 44 43 41 39 37 37 39 40 40 39 39 38 34 30 28 28 29 31 32 32 33 33 33 34 34 34 34 33 32 31 30 30 30 30 29 28 27 28 28 28 28 28 27 27 27 27 27 27 27 27 26 26 25 24 23 21 20 19 19 19 20 20 20 19 19 19 18
45 46 47 47 49 49 50 50 50 49 49 49 48 49 50 49 48 48 45 44 43 42 39 37 37 39 41 40 39 40 39 37 33 29 28 29 31 33 34 35 35 35 36 36 35 34 33 31 30 31 30 30 29 29 29 29 30 30 29 29 28 28 28 28 28 28 28 27 27 26 25 23 22 21 20 20 21 21 21 20 20 20 20 19 19
44 45 46 47 48 49 51 52 51 50 49 48 46 46 47 46 45 46 46 45 44 43 42 40 37 37 39 41 40 40 41 41 39 35 31 29 30 32 34 36 37 37 37 37 36 35 34 32 31 31 31 31 31 31 31 31 31 31 31 30 29 29 28 28 28 28 28 27 26 25 24 23 22 22 22 22 22 22 21 21 21 20 20 20 19
44 44 45 47 48 49 51 51 51 50 48 45 42 41 42 42 41 42 44 44 45 44 43 42 40 38 38 40 40 39 40 41 41 40 38 34 32 33 34 35 36 38 38 38 37 36 35 33 32 31 32 32 33 33 33 33 33 33 32 30 29 29 29 28 28 27 26 25 25 25 24 23 23 23 23 23 22 22 22 21 21 21 20 20 20
44 45 45 46 47 48 49 48 45 43 41 39 38 38 41 41 39 40 43 43 44 45 44 43 43 41 40 40 40 39 40 40 39 41 43 40 36 34 34 34 35 35 37 38 38 37 36 34 33 33 34 35 36 35 35 35 34 33 32 30 30 29 29 28 27 26 25 25 25 25 25 24 24 24 23 23 23 23 22 22 21 21 20 20 20
45 46 46 46 47 47 46 42 38 35 34 34 35 37 39 39 39 42 46 45 44 44 45 45 44 42 41 41 40 39 41 40 37 36 39 41 40 36 35 35 35 35 36 38 39 38 37 36 36 37 38 38 38 37 37 35 33 32 31 30 30 30 30 30 29 28 27 26 26 25 25 25 24 24 24 23 23 23 23 22 22 21 20 20 19
46 47 47 46 46 45 44 43 41 41 41 40 40 42 46 46 45 47 50 49 46 44 44 44 44 42 41 42 42 41 41 41 37 34 34 37 40 38 35 34 35 35 37 38 38 38 38 39 40 40 40 39 38 37 37 35 34 33 33 32 32 32 31 31 31 29 28 27 27 26 25 25 25 24 24 24 24 23 23 22 22 21 20 20 19
45 46 46 45 45 45 45 47 48 48 48 47 45 45 50 53 52 51 52 52 49 45 44 43 43 41 41 42 43 42 42 41 39 37 35 35 36 36 34 32 33 34 37 39 39 39 40 41 41 41 40 39 38 38 37 36 36 35 34 33 33 33 32 32 31 30 28 28 27 26 26 25 25 24 24 24 24 23 23 22 22 21 21 20 19
39 42 44 46 47 48 48 49 49 50 50 50 47 45 48 54 56 54 53 51 48 46 44 42 42 40 40 40 41 42 42 41 39 39 37 35 34 33 31 30 30 32 35 37 39 40 41 42 42 41 41 40 39 39 38 38 37 36 36 35 35 34 33 32 31 30 29 28 27 27 26 25 25 25 25 25 24 24 23 23 22 21 21 20 19
39 43 47 48 48 49 49 48 49 49 49 48 48 47 48 51 54 56 55 52 48 45 43 42 41 40 39 39 39 40 41 39 38 39 38 35 32 30 28 29 30 31 33 36 39 40 41 42 42 43 43 42 41 40 40 39 39 38 37 36 36 35 34 33 31 30 29 28 27 27 26 26 26 26 26 26 25 24 24 23 22 21 21 21 20
44 47 47 47 47 49 49 48 48 48 48 47 47 47 47 48 49 51 53 53 51 47 44 42 41 40 39 38 37 38 39 38 38 38 37 34 31 28 27 28 29 30 32 35 38 41 43 44 45 46 46 45 43 42 41 41 40 40 38 37 35 34 33 32 31 30 29 28 28 27 27 27 27 27 26 26 26 25 24 23 23 22 21 21 21
47 47 46 46 47 48 49 48 47 47 47 46 46 47 47 46 46 45 45 47 48 49 48 45 42 39 39 38 37 36 36 36 36 36 36 33 30 27 27 29 32 34 36 37 39 42 45 47 48 48 48 47 45 43 43 42 41 40 38 36 35 33 32 32 32 31 30 29 29 28 28 28 27 27 27 26 26 25 25 24 23 22 21 21 20
46 46 46 46 47 48 48 48 47 47 47 46 46 46 45 43 42 42 42 43 44 46 49 47 43 39 39 40 38 36 33 31 31 32 32 31 28 28 30 34 37 39 40 41 42 44 46 48 50 50 50 49 46 44 43 42 41 39 37 35 34 34 33 32 32 31 30 29 29 29 28 28 28 27 27 26 26 25 24 23 22 22 21 20 20
44 45 46 46 46 47 47 47 47 46 46 45 44 44 43 43 43 43 43 44 45 46 48 47 43 40 41 41 38 35 30 26 25 27 28 28 28 29 33 37 38 40 42 43 44 46 47 49 50 50 50 49 47 44 43 42 39 38 36 35 34 34 33 32 31 30 30 30 29 29 28 28 28 27 27 26 26 25 24 23 22 21 20 20 20
44 45 46 46 45 45 45 46 46 45 44 44 43 42 41 42 43 42 42 44 45 46 47 47 43 41 42 41 37 33 28 24 24 27 28 29 30 33 36 37 38 39 41 43 45 47 49 50 49 47 47 47 46 45 43 41 39 38 37 36 35 34 32 31 30 30 30 30 29 29 28 28 27 27 26 25 25 24 23 23 22 21 21 21 21
45 46 46 45 44 43 43 43 44 43 42 43 42 40 38 39 40 39 39 40 40 42 44 45 44 43 43 40 35 31 27 25 26 30 31 32 34 36 37 37 37 38 40 42 45 47 50 49 46 43 44 46 46 44 42 41 39 39 38 37 36 34 33 32 31 31 31 30 30 29 28 27 27 26 25 25 24 24 23 22 21 21 22 22 22
45 46 46 44 43 42 41 41 42 42 42 42 41 40 39 39 39 39 38 38 38 39 41 42 43 43 42 39 35 31 29 27 28 30 32 33 34 36 37 38 39 39 40 42 44 46 48 47 43 41 43 46 47 45 42 40 40 39 38 36 35 34 33 33 32 32 31 30 29 28 28 27 26 25 25 25 24 23 22 21 21 21 21 22 23
43 44 44 43 42 41 41 41 41 41 41 41 40 40 39 39 39 38 37 37 38 39 40 42 43 42 40 38 35 32 30 29 28 29 31 33 34 36 38 40 40 39 41 42 43 44 45 45 43 43 45 47 47 45 43 41 40 38 37 35 34 33 33 32 31 31 30 29 28 28 27 26 25 25 24 24 23 22 22 21 21 22 22 23 23
41 42 43 42 40 40 40 41 42 41 41 40 39 39 39 39 38 37 37 37 38 39 40 42 42 39 36 36 34 31 30 30 29 29 31 32 34 36 39 41 40 40 42 43 43 45 46 45 45 45 46 47 47 46 43 41 40 38 36 35 35 34 33 32 31 30 29 29 28 27 26 25 24 24 23 22 22 22 22 22 22 23 23 24 24
40 41 41 41 40 39 40 41 41 41 41 40 39 39 38 37 36 36 36 37 39 40 41 41 40 37 35 35 33 30 30 32 32 32 33 34 35 38 41 42 42 41 42 44 45 46 46 46 46 47 47 46 45 44 41 40 38 37 36 35 34 33 32 31 30 30 29 27 26 25 24 24 23 23 22 21 21 22 22 23 23 24 24 24 24
39 40 40 40 39 39 40 41 41 41 40 39 38 38 38 36 36 36 36 37 39 40 40 40 38 37 36 35 32 31 32 34 35 35 36 36 37 39 42 43 44 44 46 47 47 47 46 46 46 46 44 42 41 40 38 37 35 34 34 34 33 32 31 30 28 27 26 26 25 25 24 23 22 22 22 22 22 23 24 24 25 25 24 24 23
38 38 38 38 39 39 40 40 39 39 38 37 37 38 37 36 36 36 36 37 38 38 38 38 37 36 36 35 33 33 34 35 36 37 38 38 38 40 42 44 45 46 48 48 47 46 46 45 45 44 42 41 39 37 35 34 32 31 31 31 30 28 27 25 24 24 24 23 23 23 23 23 22 22 23 23 24 24 25 25 24 24 24 24 23
35 35 36 37 38 39 39 38 37 36 36 36 37 37 36 35 35 35 35 36 35 35 36 36 36 35 35 35 34 34 34 35 37 38 39 39 39 41 43 44 46 46 46 45 44 44 43 43 43 42 41 39 37 35 34 33 31 30 29 27 25 23 22 22 22 22 22 22 21 22 22 23 23 23 23 24 24 25 25 24 24 24 24 23 22
34 34 35 36 36 37 37 36 35 35 35 35 36 36 36 35 33 32 33 33 32 32 34 35 35 34 34 34 33 33 34 35 37 39 39 39 40 41 42 43 43 43 42 40 39 39 39 39 38 37 36 35 34 33 32 30 29 27 26 25 24 23 22 22 22 22 22 21 21 21 21 23 24 24 25 25 25 25 25 25 24 24 23 22 21
32 33 33 33 33 34 34 34 34 35 35 35 35 34 32 31 30 29 30 31 31 32 34 34 34 33 33 33 33 33 34 36 37 38 38 38 38 39 40 39 38 37 36 35 34 34 33 32 31 30 30 30 29 28 27 26 25 24 24 23 23 23 22 23 23 23 23 23 22 22 22 23 24 25 25 25 25 25 24 24 23 23 21 20 19
31 31 32 32 32 33 33 34 34 34 34 34 34 31 28 27 27 27 28 30 31 32 33 33 33 32 32 32 33 34 35 35 36 36 36 36 36 36 36 35 34 33 32 32 32 31 30 30 29 27 26 25 24 24 24 24 23 23 23 23 23 23 22 23 23 23 24 25 25 24 24 24 24 25 25 25 25 24 23 22 21 20 19 18 17
30 30 30 31 31 32 32 32 32 31 31 30 30 27 24 24 24 26 27 29 29 30 31 31 31 31 31 32 33 33 34 34 34 33 33 33 34 34 34 33 33 33 33 33 32 31 30 29 28 26 25 24 23 23 23 24 24 24 23 24 24 24 24 24 24 24 25 25 26 26 25 25 25 25 25 25 24 23 22 21 20 18 18 17 16
29 29 28 29 29 29 29 29 28 27 26 26 25 23 21 21 22 24 25 26 27 28 29 29 29 29 30 31 31 31 31 31 31 31 32 32 33 33 34 34 34 34 34 33 32 31 30 29 27 26 25 25 24 24 24 24 24 24 25 25 26 26 26 26 26 26 26 26 26 26 26 25 24 24 24 23 22 21 20 19 18 17 16 16 15
Wind_Direction
7 4 1 357 345 322 296 276 262 258 258 258 260 260 261 264 264 265 268 268 266 262 259 259 259 257 255 254 260 265 264 263 261 256 252 249 248 249 248 247 246 246 247 247 247 248 250 251 253 253 253 253 252 251 250 251 251 251 248 246 246 246 245 241 243 253 258 257 258 259 257 258 263 268 269 272 282 282 280 284 279 267 265 268 269
3 2 0 359 356 349 334 310 284 266 260 259 258 257 257 259 261 265 266 265 266 263 256 255 255 252 251 255 261 264 261 259 257 254 252 250 248 248 248 248 247 246 246 245 245 246 247 249 251 253 253 252 252 251 250 250 249 249 247 246 246 246 245 243 241 249 255 255 255 257 259 259 259 261 262 267 276 277 281 285 274 262 266 269 272
358 358 357 358 357 354 348 336 317 290 272 264 260 258 257 256 258 262 263 262 265 265 259 258 259 258 258 259 261 261 259 256 254 252 252 250 249 249 249 249 249 247 246 246 245 245 247 249 251 253 254 254 254 252 251 249 248 247 246 246 246 244 245 245 243 244 249 252 254 256 258 260 260 261 261 264 269 270 277 279 268 264 270 271 275
354 353 353 354 354 353 350 345 337 321 300 284 271 264 260 258 257 258 259 260 262 263 261 261 263 263 263 262 262 260 257 254 251 249 250 250 250 250 250 251 250 248 247 247 247 246 247 250 252 254 254 255 255 253 250 249 247 246 245 245 245 245 245 245 242 240 242 247 253 255 256 257 258 260 259 259 264 269 272 270 266 268 273 276 279
350 349 349 350 349 349 348 345 342 337 325 309 294 281 270 262 259 257 257 259 261 261 261 261 261 262 263 264 264 261 257 253 250 248 249 250 250 250 251 252 251 249 248 248 248 248 248 250 252 254 255 254 253 251 249 248 246 245 245 244 245 246 246 244 241 239 238 242 248 254 255 255 255 257 259 259 262 267 268 267 269 273 275 278 280
346 346 346 347 346 346 345 343 341 339 335 326 314 302 289 274 264 258 256 257 258 259 259 259 258 258 260 262 264 261 258 254 250 249 249 250 250 250 250 250 250 249 248 248 249 248 248 250 252 254 255 253 251 249 247 246 245 244 244 243 244 244 245 245 243 241 239 240 246 251 253 254 256 257 259 261 261 262 263 264 268 272 274 276 278
343 343 343 343 343 344 344 342 339 337 336 332 325 316 306 291 275 263 259 257 256 255 256 257 257 257 258 260 261 260 259 256 252 250 249 248 248 248 249 249 249 249 249 249 248 247 247 249 252 253 253 252 250 248 246 244 244 243 243 242 242 243 243 243 243 242 241 241 244 248 250 254 258 260 260 261 261 261 261 261 263 267 269 271 273
339 339 339 340 339 339 340 340 338 334 332 331 328 322 314 305 292 275 264 259 257 256 256 256 256 257 257 258 258 259 259 257 253 250 248 247 246 246 247 248 248 249 249 248 247 246 247 249 251 252 251 250 248 246 244 243 242 242 242 240 240 240 241 242 242 241 240 240 243 246 249 250 254 257 258 258 259 260 261 263 262 261 263 265 267
335 335 335 336 336 336 335 336 336 334 330 328 327 325 320 313 305 291 274 263 259 258 256 256 256 256 255 256 257 257 256 254 251 249 248 246 245 245 245 246 247 248 247 247 246 246 248 249 250 250 249 248 246 244 242 241 241 241 240 239 239 240 241 242 241 241 240 240 242 244 245 246 247 249 252 254 254 256 260 262 259 257 261 265 263
333 332 331 332 332 332 332 331 332 333 331 328 325 324 322 319 314 305 291 274 264 261 258 256 254 254 253 254 254 253 252 250 248 247 246 246 245 245 246 246 247 247 247 246 247 247 249 249 248 248 247 244 243 242 241 240 240 239 239 240 241 241 242 244 244 244 244 244 245 245 244 245 246 247 250 253 254 253 255 255 254 257 262 261 257
331 330 329 329 329 329 329 328 328 329 330 328 325 322 320 320 318 314 307 293 276 265 260 257 254 253 253 253 252 250 249 247 247 247 246 245 246 246 247 247 247 247 247 247 248 249 248 247 246 245 242 240 240 239 239 239 238 237 238 240 243 244 245 246 247 247 247 246 248 248 245 246 249 251 252 252 250 250 250 250 252 255 254 250 252
329 328 327 327 327 326 326 325 325 326 326 326 325 322 319 317 317 316 312 306 294 276 264 259 257 255 254 254 251 249 248 247 247 248 247 245 246 246 247 247 247 247 247 247 247 248 246 245 244 242 239 238 238 238 238 237 237 238 239 241 244 245 247 248 248 248 249 249 251 251 249 248 251 252 251 250 249 249 250 249 248 248 248 251 259
327 327 326 325 325 325 324 323 322 322 322 323 323 321 319 316 315 316 314 309 302 290 277 268 263 259 257 256 254 252 249 247 246 246 245 244 244 244 245 246 246 246 245 244 243 243 244 243 241 239 237 236 237 237 236 236 237 239 241 243 245 246 248 248 248 247 249 251 254 254 253 252 250 250 251 252 251 246 245 245 245 248 255 260 262
327 327 326 324 323 322 322 321 320 319 319 320 320 319 319 316 314 314 313 310 306 299 291 281 271 265 262 259 256 254 251 248 246 245 245 244 243 242 242 243 243 241 240 239 239 239 240 240 238 236 235 235 235 235 235 236 239 241 243 245 245 246 247 247 246 244 243 244 244 244 247 251 252 251 250 246 241 241 243 245 248 251 254 255 254
326 326 326 324 323 321 320 319 318 317 317 317 317 317 317 315 313 312 311 310 309 305 298 290 280 272 266 261 257 254 250 248 246 245 244 243 241 239 238 237 237 236 235 235 235 235 235 235 235 234 234 234 234 235 237 239 242 243 244 244 244 244 244 244 245 244 243 243 243 244 247 250 249 247 243 235 235 243 248 248 245 242 242 244 249
326 326 325 324 322 321 319 317 315 315 315 315 315 315 315 314 312 310 307 306 307 306 301 295 287 278 270 263 258 254 250 248 246 243 242 241 238 236 235 235 234 233 233 232 232 232 231 232 233 233 233 233 234 236 239 240 242 243 243 243 243 244 244 245 247 248 249 250 250 251 250 248 244 242 243 242 243 246 246 242 239 239 242 249 254
325 325 323 322 321 320 318 316 314 313 313 313 312 312 313 312 311 310 306 302 303 305 305 300 291 283 275 266 260 256 252 249 247 244 242 240 238 237 235 233 233 231 231 230 230 230 231 231 232 233 233 235 237 239 239 240 240 241 241 242 242 243 245 247 249 250 251 251 251 250 249 247 245 244 247 250 250 247 244 242 243 246 248 252 256
324 323 321 320 319 318 317 315 314 312 312 311 310 309 309 309 309 310 306 301 299 301 304 302 293 286 280 271 263 258 254 250 246 243 240 238 237 236 234 232 231 229 228 228 229 229 230 231 232 234 236 238 239 239 239 239 239 239 240 240 242 244 246 248 249 249 249 249 250 249 248 248 248 248 248 249 248 245 244 244 245 246 247 248 249
320 319 318 318 317 317 316 314 312 312 311 310 309 307 306 306 306 307 306 300 295 294 298 300 295 288 282 276 267 259 255 252 247 242 237 233 232 232 231 230 229 228 228 227 227 228 229 231 233 235 237 238 237 237 238 238 238 238 239 240 242 244 246 247 247 247 247 247 247 247 247 248 248 247 246 244 242 240 240 239 237 236 236 235 233
316 314 315 315 315 315 315 313 311 310 309 309 308 305 303 303 303 303 304 300 294 289 290 293 294 290 285 278 270 261 254 251 249 247 242 235 231 231 231 231 230 229 227 227 227 229 231 233 236 236 236 235 234 235 235 235 236 237 238 240 243 244 244 244 243 242 242 243 244 244 244 245 244 242 241 239 237 235 233 231 226 224 223 221 218
314 313 312 312 312 312 312 311 310 308 307 308 308 304 301 300 300 300 301 301 296 288 284 286 289 288 285 281 274 265 257 250 248 249 249 244 239 236 234 235 234 232 231 230 231 233 235 236 236 235 234 233 233 233 233 233 234 236 238 240 242 241 239 238 238 237 237 238 239 239 239 238 238 237 237 235 233 229 226 223 219 216 214 213 213
312 312 310 310 310 310 309 309 308 307 306 306 306 304 300 298 298 297 297 298 296 290 283 282 283 283 282 281 278 271 262 254 248 246 248 249 247 243 240 238 237 237 237 237 237 237 237 237 235 234 233 233 232 232 232 232 234 236 237 237 236 234 232 232 233 234 235 236 236 236 235 234 234 234 232 229 226 223 219 215 211 210 209 210 213
310 310 309 310 310 310 310 308 307 306 305 304 304 304 301 298 296 295 295 295 295 292 284 279 279 280 278 276 276 275 270 262 254 248 246 247 248 248 246 243 241 240 240 241 242 242 239 236 234 233 233 233 233 232 232 233 233 234 234 233 231 229 228 229 231 232 233 234 235 234 233 232 232 229 226 223 219 215 212 209 207 207 208 210 213
307 307 308 309 310 311 311 310 307 304 302 302 302 302 301 299 295 294 293 293 292 291 287 281 277 277 276 274 272 272 272 268 261 253 249 248 247 246 246 245 243 242 242 242 242 241 239 237 235 234 233 232 233 233 232 232 232 231 230 228 227 226 227 228 230 231 232 232 232 232 230 228 226 223 219 215 212 209 208 208 207 208 209 210 213
305 305 306 307 309 311 311 310 308 305 302 301 300 299 300 299 295 292 292 291 289 289 289 285 278 274 275 274 270 269 270 269 264 256 250 249 250 249 247 245 244 243 243 242 241 238 236 236 236 234 233 233 232 232 231 229 228 227 226 225 224 226 227 228 229 229 230 229 228 226 224 222 219 216 211 208 207 208 209 210 210 210 210 211 214
304 305 305 305 307 309 309 309 309 307 303 300 299 298 298 297 294 292 290 289 287 287 288 288 283 275 272 271 270 271 272 270 267 261 252 247 249 251 251 248 246 246 244 242 241 238 236 234 234 234 233 232 231 230 228 226 224 223 223 223 223 225 227 227 228 228 228 226 224 221 218 216 212 208 206 205 207 210 211 212 212 212 213 214 217
305 304 304 305 306 306 308 309 309 308 306 303 299 296 294 292 290 289 289 287 286 285 286 287 286 280 273 269 270 272 272 271 269 266 261 253 248 248 251 251 249 248 247 244 241 238 236 233 232 232 232 231 229 228 225 222 220 220 220 221 222 223 225 225 227 227 225 222 219 216 213 210 207 206 206 207 209 212 213 214 215 216 217 218 220
304 304 304 304 304 304 306 308 309 308 305 302 297 293 292 291 288 285 285 285 284 284 284 285 286 282 277 274 273 271 269 268 266 264 264 262 255 247 246 251 253 252 250 247 243 239 236 233 230 230 230 229 227 225 222 220 219 219 220 221 220 219 219 219 219 218 216 214 213 212 209 208 207 208 209 210 212 214 215 216 218 219 220 222 223
302 302 303 303 303 304 306 307 304 300 297 296 294 291 289 287 286 285 283 283 283 283 282 283 283 281 279 277 275 271 266 263 263 263 264 266 264 256 248 248 253 255 251 247 244 239 235 232 229 229 228 227 225 223 220 219 218 217 217 217 217 215 215 214 213 211 209 208 208 209 209 210 211 212 213 214 215 216 218 219 221 221 222 224 225
300 300 301 301 302 303 302 300 296 294 293 292 290 287 285 284 284 285 284 283 283 282 280 279 279 280 279 274 271 269 266 263 263 263 258 259 264 264 258 250 249 250 250 246 242 238 235 233 230 228 228 227 225 222 220 218 216 215 213 213 213 213 212 211 211 210 209 208 208 210 212 214 215 216 217 217 217 218 218 219 221 222 224 226 228
299 298 298 298 298 298 297 296 296 295 294 293 290 286 286 287 287 286 285 284 284 282 278 275 274 276 276 271 268 267 266 265 265 262 255 253 257 261 260 254 246 244 246 244 240 237 236 234 232 229 228 226 224 222 220 217 215 214 212 210 210 210 210 210 210 209 210 209 210 212 214 216 217 218 219 219 219 218 218 219 220 222 225 228 232
294 292 292 293 295 295 295 296 296 295 294 295 291 287 287 290 290 287 285 285 285 283 279 274 271 272 271 269 267 266 265 265 265 263 259 257 256 257 258 256 248 242 242 242 240 239 238 236 233 230 227 225 223 221 219 216 215 213 212 211 209 207 207 208 209 208 209 211 212 214 215 216 217 217 218 218 218 218 218 219 221 224 227 232 235
288 288 291 292 293 294 294 294 294 293 293 293 292 289 288 289 290 290 288 287 287 285 280 274 272 271 268 265 264 264 263 262 262 262 261 260 258 257 256 254 250 244 240 238 237 238 238 236 234 231 227 225 222 219 216 214 213 211 211 211 210 208 207 207 208 209 210 211 213 215 216 217 217 217 217 217 218 219 220 222 223 225 228 233 236
289 290 292 292 292 292 293 293 293 293 293 292 291 289 286 285 287 289 289 289 289 288 282 276 273 272 269 264 261 261 261 259 257 258 258 258 256 255 254 252 249 244 241 239 237 236 235 233 232 230 227 224 221 217 214 211 210 209 209 209 209 209 208 207 207 209 211 212 213 214 215 216 217 217 217 218 219 220 221 223 224 226 229 232 233
292 292 292 292 292 292 293 294 293 293 292 291 289 288 286 284 284 284 283 283 285 287 285 279 276 275 273 268 263 261 259 256 254 254 255 255 253 250 247 244 240 236 235 234 233 232 230 229 229 228 226 223 220 216 213 210 209 209 209 208 208 208 208 208 209 211 212 214 215 216 216 216 216 217 218 220 222 223 224 225 226 227 228 228 228
294 293 292 292 292 293 294 294 293 291 291 290 289 287 285 282 280 277 275 275 277 280 282 281 279 278 277 272 268 265 261 256 252 251 252 251 247 241 238 237 235 233 232 230 228 228 228 228 229 227 225 222 218 214 211 210 209 209 208 208 207 207 207 209 212 213 214 215 216 217 217 217 217 218 219 221 224 226 227 228 229 229 227 224 221
294 292 291 291 293 294 294 293 291 290 290 289 288 286 283 280 278 276 274 272 272 273 276 278 278 279 277 273 271 270 268 261 255 252 251 248 243 237 235 236 236 234 232 229 227 224 223 224 226 225 223 220 216 211 208 208 207 207 206 205 207 208 210 212 214 215 216 216 216 217 217 218 219 220 221 223 226 227 227 228 228 226 222 217 212
293 292 291 293 294 294 293 291 290 290 289 288 287 286 283 281 280 279 276 273 271 270 272 273 273 274 274 273 272 273 273 265 254 248 245 241 236 233 232 233 234 234 233 230 227 223 222 222 222 223 224 221 215 209 206 205 204 204 204 204 206 209 212 213 214 214 215 216 216 217 218 218 219 220 222 224 226 227 227 227 225 221 215 209 204
295 294 293 293 294 293 291 291 290 289 288 287 286 284 279 275 274 273 271 269 268 267 267 268 268 268 269 270 270 270 266 258 248 243 239 236 234 232 231 230 230 231 231 230 227 225 224 224 223 223 225 222 214 208 206 204 203 202 204 205 208 209 210 212 213 213 214 215 217 218 218 219 220 221 221 222 223 224 224 222 218 214 209 204 198
297 295 293 293 294 293 292 291 290 288 287 286 285 283 279 275 272 269 265 263 263 263 263 263 263 264 265 265 263 262 259 254 248 245 241 238 236 234 232 230 228 226 226 227 226 225 225 224 221 219 220 217 211 208 207 205 203 203 205 207 210 211 212 212 213 214 215 216 217 218 220 221 221 222 221 221 220 219 216 213 209 205 201 197 192
296 294 293 293 294 293 292 290 288 287 287 286 284 282 280 277 273 268 264 261 261 262 262 261 260 261 262 262 260 259 257 254 250 246 242 241 240 237 234 231 229 226 225 225 224 223 224 223 218 213 212 210 208 207 207 205 204 205 206 207 209 211 212 213 214 214 215 216 216 218 220 221 221 221 220 219 215 210 206 203 200 197 192 188 185
295 293 293 293 293 293 292 291 290 290 290 287 284 281 280 277 272 266 262 260 259 260 261 261 260 260 261 260 259 258 256 253 250 245 241 240 240 237 233 230 228 227 224 222 219 218 219 218 213 209 207 206 206 206 206 204 205 205 206 207 208 209 210 211 212 213 214 215 216 218 219 220 219 218 215 212 207 202 197 193 190 187 183 180 178
295 293 293 292 292 292 291 291 291 291 289 288 286 285 284 281 273 265 260 259 260 261 260 259 259 259 259 259 258 256 251 248 245 241 238 236 233 230 226 223 223 221 219 217 216 216 216 214 210 207 207 207 206 206 206 206 206 206 205 206 207 209 210 211 212 213 214 215 216 217 217 216 214 211 206 202 198 193 188 185 182 180 178 176 176
295 293 292 291 291 291 291 292 292 291 290 289 286 282 280 278 272 265 260 258 259 261 259 257 256 256 256 256 254 249 243 240 237 235 233 230 228 224 221 219 217 215 214 214 214 214 213 212 210 208 208 207 207 206 206 207 207 206 204 204 206 208 209 211 212 214 216 216 216 215 212 209 205 201 196 191 188 185 181 179 178 177 176 175 175
295 293 292 292 293 293 293 292 291 290 291 290 286 282 280 277 272 266 261 259 259 259 257 255 254 253 253 253 249 243 238 235 233 231 230 228 226 223 221 217 214 213 213 213 213 211 211 211 209 208 208 207 205 205 204 203 202 201 201 203 205 208 210 212 214 215 216 215 212 209 204 198 193 190 187 183 181 179 178 176 176 175 174 175 175
297 296 296 295 295 294 294 293 292 292 293 291 287 285 285 282 275 267 263 262 260 256 254 253 252 251 250 248 245 241 237 234 231 229 228 227 225 222 219 215 212 211 212 212 211 211 210 209 208 208 207 205 202 199 198 196 195 195 196 197 200 204 207 210 210 208 206 203 201 198 194 188 183 182 180 177 175 175 174 173 172 173 173 174 175
303 300 298 297 296 296 295 295 295 295 293 289 285 284 285 282 275 268 264 262 259 254 251 250 249 247 245 244 241 238 234 232 230 228 226 225 222 219 216 213 211 210 210 209 209 208 207 205 204 203 202 199 195 193 192 192 192 193 193 194 196 198 199 200 199 197 193 188 185 184 184 181 178 175 174 172 171 171 171 171 171 172 173 175 176
307 303 301 301 300 299 299 298 297 296 292 289 288 288 285 279 274 268 264 259 255 250 246 244 242 241 239 237 234 232 230 229 227 225 223 221 219 216 213 210 208 206 205 203 201 199 197 195 195 194 193 192 190 189 187 187 188 190 192 193 194 194 193 192 189 185 181 176 173 174 176 176 174 172 171 170 170 170 169 170 171 171 172 175 176
311 308 306 305 304 302 301 299 296 294 292 290 291 291 285 278 272 265 257 250 245 241 238 236 236 235 233 229 227 226 225 225 223 220 218 215 212 209 207 204 202 200 198 195 191 188 186 185 185 185 185 186 186 185 184 184 185 187 188 188 187 185 183 182 180 177 174 171 168 168 170 171 171 169 168 167 167 168 168 169 170 171 173 175 177
316 313 310 307 305 302 300 297 295 294 292 290 290 287 279 270 260 251 243 239 235 232 230 230 230 229 227 224 223 222 221 219 217 214 211 208 205 201 198 195 193 193 191 189 185 182 180 179 179 178 178 179 181 182 182 181 179 179 179 179 176 174 172 171 171 170 169 168 166 165 166 167 167 166 165 165 166 166 167 168 170 172 174 176 177
320 317 314 310 306 303 300 298 296 295 291 287 283 277 266 255 245 238 234 231 228 225 224 224 223 221 219 218 217 216 214 212 208 203 199 197 194 192 189 187 186 185 185 184 181 177 175 173 172 171 171 172 172 173 172 171 171 170 169 168 166 165 164 164 165 164 164 164 163 162 162 164 165 165 165 164 165 166 167 169 172 173 175 177 178